Location: Wien
(48.2082°N, 16.3738°E)
Time: 10:55:36
(UTC+02:00)

Transit 4A - Pass Details

Date: 02 March 2024
Orbit: 871 x 971 km, 66.8° (Epoch: 24 April)

Event Time Altitude Azimuth Distance (km) Brightness Sun altitude
Exits shadow 02:26:39 19° 358° (N) 2,026 9.9 -39.3°
Drops below altitude 10° 02:29:07 10° 20° (NNE) 2,573 10.8 -39.0°
Sets 02:32:11 0° 35° (NE) 3,501 11.8 -38.6°
